Terug naar catalogus

COSMOS 970 DEB

ActiefLEO
NORAD 10883·DEBRIS·🇷🇺 Russia

Gelanceerd Dec 21, 1977 vanaf Baikonur Cosmodrome

Loading…

Volgende Passages (komende 24 uur)

TLE

VersSource: Space-Track

Epoch: Sep 14, 2026, 07:49 UTC

1 10883U 77121AE  26257.32596583  .00000139  00000-0  21591-3 0  9995
2 10883  65.8440   7.6049 0110998  49.6627 343.5950 13.76178790434567

Volg COSMOS 970 DEB in realtime met AllMySat

Download on the App Store